Roatan, Honduras

9:02 PM CST on November 21, 2017 (GMT -0600)
Roatan International

Weather History for MHRO - October, 2012

Change the Weather History Date:

Sunday, October 7, 2012

  Actual Average Record
Temperature  
Mean Temperature 82 °F -  
Max Temperature 88 °F 84 °F 91 °F (1996)
Min Temperature 76 °F 76 °F 68 °F (2007)
Cooling Degree Days 17    
Growing Degree Days 32 (Base 50)    
Moisture  
Dew Point 74 °F    
Average Humidity 69    
Maximum Humidity 89    
Minimum Humidity 54    
Precipitation  
Precipitation 0.00 in - - ()
Sea Level Pressure  
Sea Level Pressure 29.84 in    
Wind  
Wind Speed 3 mph ()    
Max Wind Speed 7 mph    
Max Gust Speed -    
Visibility 7.2 miles    
Events      
Averages and records for this station are not official NWS values.
T = Trace of Precipitation, MM = Missing Value Source: Averaged Metar Reports

Daily Weather History Graph

Daily Weather History Graph

Search for Another Location

Airport or City:

Trip Planner

Search our weather history database for the weather conditions in past years. The results will help you decide how hot, cold, wet, or windy it might be!

Date:

Astronomy

Oct. 07, 2012 Rise Set
Actual Time 5:37 AM CST 5:30 PM CST
Civil Twilight 5:15 AM CST 5:51 PM CST
Nautical Twilight 4:50 AM CST 6:16 PM CST
Astronomical Twilight 4:25 AM CST 6:41 PM CST
Moon 11:14 PM CST (10/7) 11:38 AM CST (10/7)
Length of Visible Light 12h 36m
Length of Day
11h 53m
Waning Gibbous, 55% of the Moon is Illuminated
Oct 7
Waning Gibbous
Oct 8
Last Quarter
Oct 15
New
Oct 21
First Quarter
Oct 29
Full

Hourly Weather History & Observations

Time (CST) Temp. Heat Index Dew Point Humidity Pressure Visibility Wind Dir Wind Speed Gust Speed Precip Events Conditions
6:00 AM 76 °F - 73 °F 88% 29.83 in 10 mi Calm Calm - -   Haze
6:00 AM 77.0 °F - 73.4 °F 89% 29.83 in 6.2 mi Calm Calm - N/A   Scattered Clouds
7:00 AM 80.6 °F 87.1 °F 77.0 °F 89% 29.83 in 6.2 mi Calm Calm - N/A   Scattered Clouds
8:00 AM 84.2 °F 92.3 °F 75.2 °F 74% 29.86 in 6.2 mi Calm Calm - N/A   Scattered Clouds
9:00 AM 85 °F - 75 °F 65% 29.89 in 10 mi South 5.8 mph - -   Haze
9:00 AM 86.0 °F 95.1 °F 75.2 °F 70% 29.89 in 6.2 mi South 5.8 mph - N/A   Scattered Clouds
10:00 AM 86.0 °F 95.1 °F 75.2 °F 70% 29.89 in 6.2 mi South 5.8 mph - N/A   Scattered Clouds
11:00 AM 87.8 °F 95.6 °F 73.4 °F 62% 29.89 in 6.2 mi South 4.6 mph - N/A   Scattered Clouds
12:00 PM 88 °F - 74 °F 54% 29.87 in 10 mi SSE 5.8 mph - -   Haze
12:00 PM 87.8 °F 95.6 °F 73.4 °F 62% 29.86 in 6.2 mi SSE 5.8 mph - N/A   Scattered Clouds
1:00 PM 86.0 °F 93.4 °F 73.4 °F 66% 29.83 in 6.2 mi NNW 5.8 mph - N/A   Scattered Clouds
2:00 PM 87.8 °F 95.6 °F 73.4 °F 62% 29.80 in 6.2 mi South 5.8 mph - N/A   Scattered Clouds
3:00 PM 87 °F - 73 °F 54% 29.81 in 10 mi ESE 5.8 mph - -   Haze
3:00 PM 87.8 °F 95.6 °F 73.4 °F 62% 29.80 in 6.2 mi ESE 5.8 mph - N/A   Scattered Clouds
4:00 PM 86.0 °F 93.4 °F 73.4 °F 66% 29.77 in 6.2 mi East 5.8 mph - N/A   Scattered Clouds
5:00 PM 86.0 °F 93.4 °F 73.4 °F 66% 29.80 in 6.2 mi NNE 6.9 mph - N/A   Scattered Clouds
6:00 PM 82 °F - 73 °F 67% 29.83 in 10 mi NE 6.9 mph - -   Haze
6:00 PM 82.4 °F 88.2 °F 73.4 °F 74% 29.83 in 6.2 mi NE 6.9 mph - N/A   Scattered Clouds
7:00 PM 80.6 °F 84.6 °F 71.6 °F 74% 29.86 in - North - - N/A   Scattered Clouds
8:00 PM 80.6 °F 84.6 °F 71.6 °F 74% 29.89 in 6.2 mi Calm Calm - N/A   Scattered Clouds